Location: Vinland
(47.7731°N, 122.6974°W)
Time: 22:54:00
(UTC+00:00)

S-56A Canister/Altair - Pass Details

Date: 06 April 2023
Orbit: 639 x 2492 km, 38.9° (Epoch: 02 June)

Event Time Altitude Azimuth Distance (km) Brightness Sun altitude
Rises 03:56:52 0° 272° (W) 4,711 13.0 -12.1°
Reaches altitude 10° 03:59:46 10° 266° (W) 3,958 12.2 -12.5°
Maximum altitude 04:10:01 46° 198° (SSW) 2,676 10.2 -14.1°
Enters shadow 04:20:57 17° 136° (SE) 4,523 10.8 -15.7°
